SQ6MTB Weather Reports


Display with metric or nautical units.
time (UTC)temp
F
wind
direction
speed
MPH
gust
MPH
rain 1hr
in
rain 24hr
in
rain mn
in
humidity
%
barometer
mb
20260903133524 72 243 6.0 14.0 0.00 0.00 0.00 57 1016.8
20260903133006 72 163 5.0 17.0 0.00 0.00 0.00 57 1017.0
20260903132511 72 238 7.0 17.0 0.00 0.00 0.00 57 1017.0
20260903132020 72 207 5.0 18.0 0.00 0.00 0.00 57 1017.1
20260903131556 72 266 7.0 18.0 0.00 0.00 0.00 57 1017.1
20260903131042 71 238 7.0 18.0 0.00 0.00 0.00 58 1017.1
20260903130549 71 247 6.0 18.0 0.00 0.00 0.00 57 1017.1
20260903130059 72 279 6.0 14.0 0.00 0.00 0.00 57 1017.2
20260903125510 72 233 5.0 14.0 0.00 0.00 0.00 56 1017.2
20260903125022 72 205 6.0 14.0 0.00 0.00 0.00 56 1017.2
20260903124604 72 150 6.0 16.0 0.00 0.00 0.00 58 1017.1
20260903124009 72 227 6.0 17.0 0.00 0.00 0.00 59 1017.2
20260903123518 72 219 6.0 16.0 0.00 0.00 0.00 59 1017.3
20260903123029 72 257 6.0 17.0 0.00 0.00 0.00 58 1017.2
20260903122533 72 277 7.0 17.0 0.00 0.00 0.00 57 1017.3
20260903122042 72 225 9.0 17.0 0.00 0.00 0.00 58 1017.3
20260903121523 71 258 9.0 17.0 0.00 0.00 0.00 58 1017.4
20260903121033 72 248 7.0 17.0 0.00 0.00 0.00 58 1017.4
20260903120548 72 257 7.0 17.0 0.00 0.00 0.00 58 1017.5
20260903120053 72 227 6.0 16.0 0.00 0.00 0.00 58 1017.5
20260903115555 72 227 5.0 14.0 0.00 0.00 0.00 58 1017.5
20260903115503 72 234 5.0 14.0 0.00 0.00 0.00 59 1017.5
20260903115043 71 207 4.0 16.0 0.00 0.00 0.00 58 1017.6
20260903114609 71 235 9.0 16.0 0.00 0.00 0.00 57 1017.7
20260903114055 71 244 6.0 11.0 0.00 0.00 0.00 56 1017.6
20260903113505 71 246 4.0 12.0 0.00 0.00 0.00 56 1017.6
20260903113015 71 229 5.0 12.0 0.00 0.00 0.00 57 1017.6
20260903112554 71 223 5.0 14.0 0.00 0.00 0.00 58 1017.5
20260903112004 70 219 6.0 14.0 0.00 0.00 0.00 57 1017.6
20260903111512 70 285 4.0 13.0 0.00 0.00 0.00 58 1018.0
20260903111022 70 248 5.0 17.0 0.00 0.00 0.00 58 1018.0
20260903110528 70 219 4.0 17.0 0.00 0.00 0.00 58 1018.0
20260903110009 70 286 6.0 12.0 0.00 0.00 0.00 57 1018.0
20260903105517 70 255 6.0 12.0 0.00 0.00 0.00 57 1018.1
20260903105025 71 237 7.0 12.0 0.00 0.00 0.00 58 1018.0
20260903104534 71 232 4.0 11.0 0.00 0.00 0.00 58 1018.2
20260903104016 70 276 3.0 12.0 0.00 0.00 0.00 59 1018.0
20260903103555 70 221 4.0 14.0 0.00 0.00 0.00 58 1018.2
20260903103006 70 205 6.0 14.0 0.00 0.00 0.00 57 1018.2
20260903102514 70 263 5.0 12.0 0.00 0.00 0.00 58 1018.2
20260903102022 70 243 4.0 10.0 0.00 0.00 0.00 58 1018.2
20260903101540 70 229 4.0 12.0 0.00 0.00 0.00 57 1018.2
20260903101011 70 251 5.0 12.0 0.00 0.00 0.00 58 1018.2
20260903100519 70 196 6.0 12.0 0.00 0.00 0.00 58 1018.2
20260903100033 71 193 3.0 12.0 0.00 0.00 0.00 58 1018.3
20260903095535 71 154 5.0 14.0 0.00 0.00 0.00 60 1018.4
20260903095018 70 234 6.0 15.0 0.00 0.00 0.00 61 1018.6
20260903094525 70 227 5.0 10.0 0.00 0.00 0.00 62 1018.5
20260903094035 70 242 2.0 12.0 0.00 0.00 0.00 61 1018.5
20260903093520 69 236 8.0 12.0 0.00 0.00 0.00 62 1018.4
20260903093125 69 234 4.0 15.0 0.00 0.00 0.00 65 1018.5
20260903092505 70 272 7.0 17.0 0.00 0.00 0.00 63 1018.7
20260903092011 70 196 3.0 11.0 0.00 0.00 0.00 66 1018.8
20260903091519 69 240 5.0 11.0 0.00 0.00 0.00 66 1018.8
20260903091025 69 244 5.0 10.0 0.00 0.00 0.00 65 1018.8
20260903090508 69 268 3.0 11.0 0.00 0.00 0.00 66 1018.9
20260903090015 69 209 6.0 11.0 0.00 0.00 0.00 65 1018.9
20260903085523 69 257 5.0 15.0 0.00 0.00 0.00 65 1018.9
20260903085100 69 231 7.0 15.0 0.00 0.00 0.00 65 1019.0
20260903085007 69 234 7.0 15.0 0.00 0.00 0.00 65 1019.0
20260903084545 69 338 5.0 9.0 0.00 0.00 0.00 65 1018.9
20260903084044 69 184 3.0 10.0 0.00 0.00 0.00 66 1018.9
20260903083525 69 190 5.0 10.0 0.00 0.00 0.00 66 1019.0
20260903083008 69 222 5.0 11.0 0.00 0.00 0.00 66 1019.0
20260903082518 69 232 7.0 11.0 0.00 0.00 0.00 65 1019.0
20260903082019 69 248 2.0 9.0 0.00 0.00 0.00 67 1018.8
20260903081535 68 236 3.0 10.0 0.00 0.00 0.00 68 1019.0
20260903081013 68 223 2.0 10.0 0.00 0.00 0.00 70 1018.9
20260903080549 67 222 2.0 11.0 0.00 0.00 0.00 72 1018.9
20260903080100 66 281 4.0 11.0 0.00 0.00 0.00 72 1018.8
20260903080003 66 261 4.0 9.0 0.00 0.00 0.00 72 1018.8
20260903075507 65 199 3.0 8.0 0.00 0.00 0.00 74 1019.0
20260903075017 64 238 3.0 8.0 0.00 0.00 0.00 76 1019.0
20260903074552 63 254 5.0 8.0 0.00 0.00 0.00 78 1018.9
20260903074040 63 279 3.0 8.0 0.00 0.00 0.00 78 1019.0
20260903073545 63 243 3.0 8.0 0.00 0.00 0.00 78 1019.0
20260903073053 63 229 2.0 9.0 0.00 0.00 0.00 78 1019.1
20260903072503 62 233 4.0 8.0 0.00 0.00 0.00 78 1019.1
20260903072039 62 257 3.0 8.0 0.00 0.00 0.00 79 1019.1
20260903071521 62 213 3.0 10.0 0.00 0.00 0.00 80 1019.1
20260903071029 62 248 2.0 10.0 0.00 0.00 0.00 80 1019.1
20260903070536 61 195 4.0 10.0 0.00 0.00 0.00 80 1019.1
20260903070057 61 244 4.0 11.0 0.00 0.00 0.00 81 1019.2
20260903065523 61 280 2.0 11.0 0.00 0.00 0.00 81 1019.3
20260903065039 61 247 4.0 8.0 0.00 0.00 0.00 82 1019.2
20260903064542 61 242 3.0 8.0 0.00 0.00 0.00 82 1019.3
20260903064049 60 275 3.0 7.0 0.00 0.00 0.00 82 1019.3
20260903063559 60 277 3.0 9.0 0.00 0.00 0.00 83 1019.3
20260903063503 60 265 3.0 9.0 0.00 0.00 0.00 83 1019.3
20260903063005 60 248 4.0 10.0 0.00 0.00 0.00 83 1019.3
20260903062539 59 266 4.0 10.0 0.00 0.00 0.00 83 1019.3
20260903062020 59 275 4.0 8.0 0.00 0.00 0.00 84 1019.3
20260903061559 59 247 4.0 8.0 0.00 0.00 0.00 85 1019.3
20260903061055 59 251 3.0 7.0 0.00 0.00 0.00 86 1019.3
20260903061004 58 244 3.0 7.0 0.00 0.00 0.00 86 1019.3
20260903060535 58 290 3.0 9.0 0.00 0.00 0.00 86 1019.2
20260903060040 58 200 4.0 9.0 0.00 0.00 0.00 87 1019.1
20260903055517 57 243 3.0 9.0 0.00 0.00 0.00 88 1019.1
20260903055050 57 254 3.0 9.0 0.00 0.00 0.00 89 1019.2
20260903054535 56 238 2.0 8.0 0.00 0.00 0.00 89 1019.2
20260903054057 56 249 3.0 8.0 0.00 0.00 0.00 89 1019.2
20260903054008 56 248 3.0 8.0 0.00 0.00 0.00 89 1019.2
20260903053537 56 264 3.0 8.0 0.00 0.00 0.00 89 1019.2
20260903053015 56 227 2.0 8.0 0.00 0.00 0.00 89 1019.3
20260903052551 56 252 2.0 8.0 0.00 0.00 0.00 89 1019.2
20260903052049 56 266 4.0 9.0 0.00 0.00 0.00 89 1019.2
20260903051529 56 242 4.0 9.0 0.00 0.00 0.00 89 1019.1
20260903051008 56 269 3.0 8.0 0.00 0.00 0.00 89 1019.1
20260903050540 56 260 2.0 5.0 0.00 0.00 0.00 89 1019.0
20260903050021 56 242 2.0 7.0 0.00 0.00 0.00 89 1019.0
20260903045523 56 240 2.0 7.0 0.00 0.00 0.00 89 1019.1
20260903045028 56 226 2.0 8.0 0.00 0.00 0.00 89 1019.1
20260903044539 56 231 3.0 7.0 0.00 0.00 0.00 89 1019.1
20260903044015 56 269 2.0 5.0 0.00 0.00 0.00 89 1019.0
20260903043546 56 250 2.0 5.0 0.00 0.00 0.00 89 1018.9
20260903043027 56 251 2.0 6.0 0.00 0.00 0.00 88 1018.9
20260903042559 56 233 2.0 7.0 0.00 0.00 0.00 88 1019.0
20260903042505 56 211 2.0 7.0 0.00 0.00 0.00 88 1019.0
20260903042039 56 214 3.0 7.0 0.00 0.00 0.00 88 1019.1
20260903041539 56 252 2.0 7.0 0.00 0.00 0.00 88 1019.1
20260903041016 57 269 2.0 5.0 0.00 0.00 0.00 88 1019.1
20260903040515 57 233 3.0 7.0 0.00 0.00 0.00 88 1019.1
20260903040052 57 241 1.0 7.0 0.00 0.00 0.00 88 1019.1
20260903035527 57 226 4.0 7.0 0.00 0.00 0.00 88 1019.0
20260903035008 57 227 3.0 7.0 0.00 0.00 0.00 88 1019.0
20260903034539 57 265 3.0 6.0 0.00 0.00 0.00 88 1018.9
20260903034018 57 240 2.0 7.0 0.00 0.00 0.00 88 1018.8
20260903033519 57 260 5.0 8.0 0.00 0.00 0.00 88 1018.9
20260903033057 57 237 4.0 8.0 0.00 0.00 0.00 88 1018.9
20260903032554 57 230 4.0 7.0 0.00 0.00 0.00 88 1018.9
20260903032503 57 250 4.0 7.0 0.00 0.00 0.00 88 1018.9
20260903032034 57 229 2.0 8.0 0.00 0.00 0.00 87 1019.0
20260903031538 57 238 2.0 8.0 0.00 0.00 0.00 87 1018.9
20260903031016 57 224 2.0 7.0 0.00 0.00 0.00 87 1018.9
20260903030554 57 253 4.0 7.0 0.00 0.00 0.00 87 1018.9
20260903030030 57 237 3.0 7.0 0.00 0.00 0.00 87 1018.8
20260903025509 57 238 3.0 5.0 0.00 0.00 0.00 87 1018.8
20260903025011 57 236 3.0 5.0 0.00 0.00 0.00 87 1018.9
20260903024552 57 240 1.0 7.0 0.00 0.00 0.00 87 1019.0
20260903024051 57 275 2.0 7.0 0.00 0.00 0.00 86 1018.9
20260903023550 57 242 3.0 7.0 0.00 0.00 0.00 86 1018.9
20260903023038 57 254 1.0 6.0 0.00 0.00 0.00 86 1018.9
20260903022511 58 247 2.0 5.0 0.00 0.00 0.00 85 1018.9
20260903022013 58 227 2.0 5.0 0.00 0.00 0.00 85 1019.1
20260903021553 58 252 2.0 6.0 0.00 0.00 0.00 85 1019.0
20260903021025 58 240 2.0 7.0 0.00 0.00 0.00 84 1019.1
20260903020508 58 245 2.0 7.0 0.00 0.00 0.00 84 1019.0
20260903020009 58 230 3.0 8.0 0.00 0.00 0.00 84 1019.0
20260903015550 58 225 3.0 8.0 0.00 0.00 0.00 83 1019.0
20260903015047 59 232 3.0 7.0 0.00 0.00 0.00 83 1019.0
20260903014526 59 236 2.0 4.0 0.00 0.00 0.00 83 1019.1
20260903014105 59 225 0.0 4.0 0.00 0.00 0.00 83 1019.1
20260903014006 59 234 0.0 4.0 0.00 0.00 0.00 83 1019.1
20260903013539 59 242 0.0 7.0 0.00 0.00 0.00 83 1019.2
20260903013050 59 253 2.0 7.0 0.00 0.00 0.00 82 1019.1
20260903012525 59 253 2.0 4.0 0.00 0.00 0.00 82 1019.2
20260903012003 59 255 2.0 4.0 0.00 0.00 0.00 82 1019.1
20260903011505 59 244 0.0 4.0 0.00 0.00 0.00 82 1019.2
20260903011007 59 266 0.0 6.0 0.00 0.00 0.00 82 1019.2
20260903010540 59 263 1.0 6.0 0.00 0.00 0.00 82 1019.2
20260903010020 59 267 0.0 5.0 0.00 0.00 0.00 82 1019.2
20260903005525 60 242 2.0 5.0 0.00 0.00 0.00 82 1019.2
20260903005028 60 240 0.0 4.0 0.00 0.00 0.00 82 1019.2
20260903004543 60 220 0.0 4.0 0.00 0.00 0.00 82 1019.1
20260903004016 60 237 1.0 4.0 0.00 0.00 0.00 82 1019.2
20260903003545 60 265 1.0 4.0 0.00 0.00 0.00 82 1019.1
20260903003024 60 228 1.0 4.0 0.00 0.00 0.00 82 1019.1
20260903002528 59 242 1.0 4.0 0.00 0.00 0.00 82 1019.1
20260903002004 59 235 2.0 4.0 0.00 0.00 0.00 83 1019.2
20260903001505 59 243 1.0 4.0 0.00 0.00 0.00 84 1019.1
20260903001042 59 231 0.0 0.0 0.00 0.00 0.00 84 1019.1
20260903000516 58 259 0.0 2.0 0.00 0.00 0.00 85 1019.1
20260903000035 58 252 0.0 3.0 0.00 0.00 0.00 85 1019.2
20260902235553 58 206 0.0 3.0 0.00 0.00 0.00 86 1019.2
20260902235057 58 213 0.0 2.0 0.00 0.00 0.00 86 1019.2
20260902234534 57 211 0.0 2.0 0.00 0.00 0.00 86 1019.2
20260902234042 57 211 0.0 2.0 0.00 0.00 0.00 86 1019.2
20260902233517 57 193 0.0 0.0 0.00 0.00 0.00 86 1019.3
20260902233054 57 193 0.0 0.0 0.00 0.00 0.00 86 1019.2
20260902232553 57 192 0.0 0.0 0.00 0.00 0.00 86 1019.3
20260902232031 57 271 0.0 0.0 0.00 0.00 0.00 86 1019.3
20260902231513 56 271 0.0 0.0 0.00 0.00 0.00 86 1019.3
20260902231041 56 271 0.0 0.0 0.00 0.00 0.00 86 1019.2
20260902230520 56 271 0.0 0.0 0.00 0.00 0.00 86 1019.3
20260902230024 56 271 0.0 0.0 0.00 0.00 0.00 87 1019.3
20260902225559 56 271 0.0 0.0 0.00 0.00 0.00 87 1019.2
20260902225504 56 271 0.0 0.0 0.00 0.00 0.00 87 1019.2
20260902225037 56 271 0.0 0.0 0.00 0.00 0.00 87 1019.2
20260902224606 56 271 0.0 0.0 0.00 0.00 0.00 87 1019.4
20260902224049 55 271 0.0 0.0 0.00 0.00 0.00 87 1019.5
20260902223549 55 271 0.0 0.0 0.00 0.00 0.00 86 1019.5
20260902223112 55 271 0.0 0.0 0.00 0.00 0.00 86 1019.6
20260902223009 55 271 0.0 0.0 0.00 0.00 0.00 86 1019.6
20260902222546 55 271 0.0 0.0 0.00 0.00 0.00 86 1019.6
20260902222057 55 271 0.0 0.0 0.00 0.00 0.00 86 1019.7
20260902221506 55 271 0.0 0.0 0.00 0.00 0.00 86 1019.7
20260902221020 55 271 0.0 0.0 0.00 0.00 0.00 86 1019.7
20260902220554 55 271 0.0 0.0 0.00 0.00 0.00 86 1019.7
20260902220036 55 271 0.0 0.0 0.00 0.00 0.00 86 1019.6
20260902215544 56 271 0.0 0.0 0.00 0.00 0.00 85 1019.7
20260902215051 56 271 0.0 0.0 0.00 0.00 0.00 85 1019.7
20260902214619 56 271 0.0 0.0 0.00 0.00 0.00 85 1019.7
20260902214502 56 271 0.0 0.0 0.00 0.00 0.00 85 1019.7
20260902214042 56 271 0.0 0.0 0.00 0.00 0.00 85 1019.7
20260902213553 56 271 0.0 0.0 0.00 0.00 0.00 85 1019.6
20260902213005 56 271 0.0 0.0 0.00 0.00 0.00 84 1019.6
20260902212543 56 271 0.0 0.0 0.00 0.00 0.00 84 1019.6
20260902212032 56 271 0.0 0.0 0.00 0.00 0.00 84 1019.6
20260902211538 56 271 0.0 0.0 0.00 0.00 0.00 84 1019.6
20260902211022 56 271 0.0 0.0 0.00 0.00 0.00 84 1019.6
20260902210507 56 271 0.0 0.0 0.00 0.00 0.00 83 1019.5
20260902210014 57 271 0.0 0.0 0.00 0.00 0.00 83 1019.5
20260902205551 57 271 0.0 0.0 0.00 0.00 0.00 83 1019.5
20260902205040 57 271 0.0 0.0 0.00 0.00 0.00 83 1019.5
20260902204558 57 271 0.0 0.0 0.00 0.00 0.00 83 1019.6
20260902204054 57 271 0.0 0.0 0.00 0.00 0.00 82 1019.6
20260902203539 57 271 0.0 0.0 0.00 0.00 0.00 82 1019.6
20260902203052 57 271 0.0 0.0 0.00 0.00 0.00 82 1019.7
20260902202558 58 271 0.0 0.0 0.00 0.00 0.00 82 1019.7
20260902202504 58 271 0.0 0.0 0.00 0.00 0.00 81 1019.7
20260902202040 58 271 0.0 0.0 0.00 0.00 0.00 81 1019.8
20260902201531 58 271 0.0 0.0 0.00 0.00 0.00 81 1019.8
20260902201031 58 271 0.0 0.0 0.00 0.00 0.00 81 1019.8
20260902200514 58 271 0.0 0.0 0.00 0.00 0.00 81 1019.8
20260902200052 59 271 0.0 0.0 0.00 0.00 0.00 81 1019.7
20260902195508 59 271 0.0 0.0 0.00 0.00 0.00 81 1019.8
20260902195014 59 271 0.0 1.0 0.00 0.00 0.00 80 1019.6
20260902194534 59 271 0.0 1.0 0.00 0.00 0.00 80 1019.6
20260902194101 60 271 0.0 0.0 0.00 0.00 0.00 80 1019.6
20260902193547 60 271 0.0 0.0 0.00 0.00 0.00 80 1019.6
20260902193052 60 271 0.0 0.0 0.00 0.00 0.00 79 1019.5
20260902192501 61 271 0.0 1.0 0.00 0.00 0.00 79 1019.6
20260902192039 61 271 0.0 1.0 0.00 0.00 0.00 79 1019.6
20260902191522 61 271 0.0 0.0 0.00 0.00 0.00 79 1019.7
20260902191034 62 271 0.0 0.0 0.00 0.00 0.00 78 1019.6
20260902190542 62 271 0.0 0.0 0.00 0.00 0.00 78 1019.5
20260902190024 62 271 0.0 0.0 0.00 0.00 0.00 78 1019.5
20260902185506 62 271 0.0 0.0 0.00 0.00 0.00 76 1019.5
20260902185016 63 271 0.0 0.0 0.00 0.00 0.00 76 1019.5
20260902184522 63 271 0.0 0.0 0.00 0.00 0.00 76 1019.5
20260902184030 63 271 0.0 0.0 0.00 0.00 0.00 76 1019.5
20260902183512 64 271 0.0 0.0 0.00 0.00 0.00 75 1019.5
20260902183022 64 271 0.0 0.0 0.00 0.00 0.00 75 1019.5
20260902182534 64 271 0.0 0.0 0.00 0.00 0.00 74 1019.3
20260902182042 64 271 0.0 0.0 0.00 0.00 0.00 73 1019.3
20260902181524 65 271 0.0 0.0 0.00 0.00 0.00 73 1019.3
20260902181040 65 271 0.0 0.0 0.00 0.00 0.00 72 1019.3
20260902180546 65 271 0.0 0.0 0.00 0.00 0.00 71 1019.2
20260902180049 66 271 0.0 0.0 0.00 0.00 0.00 70 1019.2
20260902175541 66 271 0.0 0.0 0.00 0.00 0.00 69 1019.1
20260902175046 66 271 0.0 1.0 0.00 0.00 0.00 69 1019.1
20260902174557 67 271 0.0 1.0 0.00 0.00 0.00 68 1019.1
20260902174006 67 271 0.0 0.0 0.00 0.00 0.00 67 1019.1
20260902173542 67 271 0.0 0.0 0.00 0.00 0.00 66 1019.2
20260902173023 68 271 0.0 0.0 0.00 0.00 0.00 66 1019.2
20260902172533 68 271 0.0 0.0 0.00 0.00 0.00 65 1019.2
20260902172046 68 271 0.0 1.0 0.00 0.00 0.00 65 1019.2
20260902171524 68 271 0.0 2.0 0.00 0.00 0.00 64 1019.2
20260902171005 68 271 0.0 3.0 0.00 0.00 0.00 64 1019.2
20260902170513 68 271 0.0 4.0 0.00 0.00 0.00 64 1019.3
20260902170030 69 259 2.0 4.0 0.00 0.00 0.00 63 1019.3
20260902165527 69 236 2.0 4.0 0.00 0.00 0.00 63 1019.4
20260902165011 69 275 2.0 6.0 0.00 0.00 0.00 63 1019.4
20260902164553 69 263 2.0 6.0 0.00 0.00 0.00 63 1019.4
20260902164056 69 252 2.0 6.0 0.00 0.00 0.00 62 1019.3
20260902163508 69 259 3.0 6.0 0.00 0.00 0.00 61 1019.3
20260902163011 69 265 2.0 7.0 0.00 0.00 0.00 61 1019.3
20260902162521 69 281 3.0 7.0 0.00 0.00 0.00 61 1019.2
20260902162025 70 269 4.0 7.0 0.00 0.00 0.00 60 1019.3
20260902161559 70 257 3.0 7.0 0.00 0.00 0.00 59 1019.2
20260902161520 70 242 3.0 7.0 0.00 0.00 0.00 59 1019.2
20260902161042 70 269 4.0 9.0 0.00 0.00 0.00 58 1019.2
20260902160525 71 274 5.0 10.0 0.00 0.00 0.00 57 1019.2
20260902160028 72 238 5.0 10.0 0.00 0.00 0.00 57 1019.3
20260902155533 72 281 6.0 9.0 0.00 0.00 0.00 57 1019.3
20260902155045 72 285 2.0 10.0 0.00 0.00 0.00 57 1019.4
20260902154547 72 216 5.0 10.0 0.00 0.00 0.00 57 1019.4
20260902154027 72 309 1.0 12.0 0.00 0.00 0.00 58 1019.4
20260902153509 71 324 2.0 12.0 0.00 0.00 0.00 58 1019.5
20260902153050 71 250 5.0 11.0 0.00 0.00 0.00 57 1019.5
20260902152557 71 264 7.0 11.0 0.00 0.00 0.00 57 1019.4
20260902152006 71 263 2.0 5.0 0.00 0.00 0.00 59 1019.6
20260902151512 70 278 2.0 8.0 0.00 0.00 0.00 60 1019.6
20260902151048 70 265 4.0 9.0 0.00 0.00 0.00 60 1019.6
20260902150525 70 247 5.0 11.0 0.00 0.00 0.00 59 1019.6
20260902150017 71 255 6.0 11.0 0.00 0.00 0.00 58 1019.6
20260902145516 71 256 5.0 11.0 0.00 0.00 0.00 57 1019.5
20260902145025 72 276 4.0 10.0 0.00 0.00 0.00 58 1019.6
20260902144533 71 287 5.0 9.0 0.00 0.00 0.00 58 1019.7
20260902144039 71 238 5.0 9.0 0.00 0.00 0.00 58 1019.6
20260902143523 71 39 2.0 7.0 0.00 0.00 0.00 58 1019.7
20260902143030 71 303 3.0 8.0 0.00 0.00 0.00 58 1019.7
20260902142536 71 291 4.0 9.0 0.00 0.00 0.00 59 1019.8
20260902142047 71 271 6.0 9.0 0.00 0.00 0.00 55 1019.9
20260902141549 71 239 3.0 8.0 0.00 0.00 0.00 56 1019.9
20260902141031 71 235 4.0 8.0 0.00 0.00 0.00 58 1019.8
20260902140544 70 235 2.0 11.0 0.00 0.00 0.00 58 1020.0
20260902140047 70 232 3.0 11.0 0.00 0.00 0.00 58 1019.9
20260902135549 70 274 1.0 7.0 0.00 0.00 0.00 59 1020.0
20260902135032 70 173 2.0 10.0 0.00 0.00 0.00 58 1020.0
20260902134513 70 210 5.0 10.0 0.00 0.00 0.00 59 1020.1
20260902134021 70 263 2.0 10.0 0.00 0.00 0.00 61 1020.1